This is the latest recevied weather packets stored in our database for station/object F4IKI-10. If no packets are shown the sender has not sent any weather packets the latest 10 day(s).
| Time | Temp. | Humidity | Pressure | Rain* | Wind** | Luminosity | Snow |
|---|---|---|---|---|---|---|---|
| 1777922934 | 20.56° C | 70% | 1016.6 hPa | - | - | - | - |
| 1777922034 | 20.56° C | 69% | 1016.5 hPa | - | - | - | - |
| 1777921134 | 20.56° C | 69% | 1016.5 hPa | - | - | - | - |
| 1777920234 | 21.11° C | 67% | 1016.5 hPa | - | - | - | - |
| 1777919333 | 21.11° C | 67% | 1016.6 hPa | - | - | - | - |
| 1777918433 | 21.11° C | 68% | 1016.4 hPa | - | - | - | - |
| 1777917533 | 21.11° C | 68% | 1016.4 hPa | - | - | - | - |
| 1777916633 | 21.11° C | 69% | 1016.4 hPa | - | - | - | - |
| 1777915733 | 20.56° C | 68% | 1016.5 hPa | - | - | - | - |
| 1777914833 | 21.11° C | 67% | 1016.5 hPa | - | - | - | - |
| 1777913933 | 21.11° C | 67% | 1016.5 hPa | - | - | - | - |
| 1777913033 | 21.11° C | 66% | 1016.5 hPa | - | - | - | - |
| 1777912133 | 21.11° C | 65% | 1016.3 hPa | - | - | - | - |
| 1777911233 | 20.56° C | 65% | 1015.8 hPa | - | - | - | - |
| 1777910332 | 20.56° C | 63% | 1015.6 hPa | - | - | - | - |
| 1777909432 | 17.78° C | 67% | 1015.8 hPa | - | - | - | - |
| 1777908532 | 19.44° C | 64% | 1016.1 hPa | - | - | - | - |
| 1777907632 | 19.44° C | 65% | 1015.9 hPa | - | - | - | - |
| 1777906732 | 19.44° C | 65% | 1016 hPa | - | - | - | - |
| 1777905832 | 19.44° C | 65% | 1015.9 hPa | - | - | - | - |
| 1777904932 | 19.44° C | 65% | 1015.8 hPa | - | - | - | - |
| 1777904032 | 19.44° C | 65% | 1016 hPa | - | - | - | - |
| 1777903132 | 19.44° C | 65% | 1015.7 hPa | - | - | - | - |
| 1777902231 | 19.44° C | 65% | 1015.6 hPa | - | - | - | - |
| 1777901331 | 19.44° C | 65% | 1015.6 hPa | - | - | - | - |
* Rain since midnight (hover to see other rain measurements)
** Current wind speed in m/s (hover to see current wind gust speed)